Location: Ocean City
(38.3360°N, 75.0850°W)
Time: 05:29:41
(UTC-04:00)

Tiangong 2 - Visible Passes

Search period start: 20 March 2019 00:00
Search period end: 30 March 2019 00:00
Orbit: 379 x 390 km, 42.8° (Epoch: 19 March)

Date Brightness Start Highest point End Pass type
(mag) Time Alt. Az. Time Alt. Az. Time Alt. Az.
20 Mar 1.6 05:40:31 34° NW 05:41:33 53° NNE 05:44:40 10° E visible
21 Mar 3.9 04:43:55 19° ENE 04:43:55 19° ENE 04:45:00 10° E visible
21 Mar 1.2 06:16:09 13° WNW 06:18:50 60° SSW 06:21:58 10° SE visible
22 Mar 1.3 05:19:39 70° E 05:19:39 70° E 05:22:32 10° ESE visible
23 Mar 1.9 05:55:31 26° WSW 05:56:29 33° SSW 05:59:23 10° SE visible
24 Mar 3.5 04:59:18 17° SE 04:59:18 17° SE 05:00:12 10° SE visible
25 Mar 3.4 05:35:30 14° S 05:35:30 14° S 05:36:18 10° S visible
28 Mar 3.3 20:43:06 10° SSW 20:43:57 15° S 20:43:57 15° S visible
29 Mar 3.3 19:45:11 10° SSE 19:46:10 11° SE 19:47:08 10° ESE visible
29 Mar 3.5 21:19:21 10° WSW 21:20:19 18° SW 21:20:19 18° SW visible
